OPS 4682 DEB, 38404

Orbit data source: Space-Track

OPS 4682 DEB, 38404 is space debris in LEO originally from a launch on Sat, 03 Apr 1965 UTC launched from the Air Force Western Test Range (AFWTR). Debris objects in space refer to the collection of defunct objects orbiting the Earth. Examples of debris include non-operational satellites, rocket bodies, and fragments generated from explosions, collisions, or faulty payload assembly.

Loading next visibility...
Identifier
38404, 1965-027DH
Orbit
LEO
Country
Flag of USUS
Related business
Manufacturer
Unknown
Mission
Spacecraft
Bus & Motor
Unknown
Mass
Unknown
Launch date (UTC)
1965-04-03 (61 years ago)
Launch vehicle
Unknown
Launch site
Air Force Western Test Range (AFWTR)
Object type
Payload
Rocket body
Debris
Shape & HBR
Unknown shape, 0.1 m
Radar Cross Section
Medium (>0.1 m² and <1 m²)

Expand to show TLE details & history
Last TLE update: 14 hours ago

TLE from 14 hours ago
0 OPS 4682 DEB
1 38404U 65027DH  26174.82875337  .00000910  00000-0  30085-2 0  9990
2 38404  90.2388   6.4819 0018409 286.4897  73.4202 12.99749134665683
Epoch: 2026-06-23T19:53Z
TLE epoch observation values (Epoch: 2026-06-23T19:53:24.291Z)
Latitude
-0.00002°
Longitude
156.13598°
Altitude
1,261.962 km
Speed
7.226 km/s
True Right ascension
00h 25m 55s
True Declination
0° 00' 00"
Sunlit
Object was in daylight at epoch
Visualization orbit readout
Latitude
Unknown
Longitude
Unknown
Altitude
Unknown
Speed
Unknown
Apparent Right ascension
Unknown
Apparent Declination
Unknown
Sunlit
N/A
Visualization observer readout
Local Sidereal Time
21:06:47
Azimuth
Unknown
Elevation
Unknown
Doppler factor
Unknown
Orbital elements
Apogee altitude
1,274.258 km
Perigee altitude
1,246.136 km
Semi-major axis
7,638.334 km
Eccentricity
0.00184
Inclination
90.2388°
RAAN
6.4819°
Arg. of periapsis
286.4897°
True anomaly
73.62251°
Mean anomaly
73.4202°
Eccentric anomaly
73.52134°
Mean motion
3.25121 °/min
Orbital period
110.73 mins
BSTAR
0.0030085
Loading maneuver chart data...
Computing Atmospheric mass density...
Loading historical data...
Loading historical data...
Loading historical data...
Loading historical data...
Loading historical data...
Loading historical data...
Loading historical data...

Documentation

Showing up to 5 results
|